Погода в Усугли

Погода в Усугли : погода сейчас, прогноз погоды и архив. Всё, что Вы хотите узнать о погоде в Усугли!

Хотите узнать прогноз погоды в Усугли? Тогда Вам сюда: Погода в Усугли

Поиск расширенной информации на нашем сайте:

Другие новости

Новости СМИ2

Главная страница сайта

Новости сайта

03.07.2017

Напоминаем, что на нашем специализированном сайте Метеоцентр.Азия вы можете получить высокодетализированные автоматические прогнозы погоды по пунктам России, СНГ и мира в авиационном формате (включающие направление и скорость ветра, видимость, явления погоды, количество и форму облачности, нижнюю и верхнюю границу облачности).


Погода в Усугли - сегодня

Время (UTC), дата Ветер
(°,м/с) 
Видим.   Явления Облачность Т
(°С)
Тd
(°С)
f(%) Тe
(°С)
Pmin
(гПа)
dP
(гПа)
Po
(мм)
O2
(г/м3)
Тmin Tmax R s Состояние
почвы
03 22.05.18 260 (З) 6{12}  20000 м    6/6 600 м кучево-дожд. 
[Cb cap]
+5.1 -5.2 47 +3  995.8  -1.9  691  274           
06 22.05.18 210 (ЮЗ) 5{13}  20000 м    8/8 600 м кучево-дожд. 
[Cb cap]
+5.1 -1.1 64 +3  993.6  -2  689  273           
09 22.05.18 200 (Ю) 20000 м  {ливн. осадки}  10/6 600 м кучево-дожд., верхняя 
[Cb cap|Ci ing]
+5.8 +1.1 72 +4  991.3  -2  688  271           
12 22.05.18 050 (СВ) 3{10}  20000 м  {ливн. осадки}  8/5 600 м кучево-дожд., верхняя 
[Cb cap|Ci ing]
+2.5 +1 90 +1  992.4  0.2  688  274    +6.7     
15 22.05.18 310 (СЗ) н/о    10/4 600 м кучево-дожд., средняя 
[Cb cap|As trans]
+1.1 +0.2 94 +2  992.1  -0.7  687  276           
18 22.05.18 тихо ()   н/о    10/3 600 м кучево-дожд., средняя 
[Cb cap|As trans]
-0.8 -1.3 96 -1  991.3  -1.2  686  277           
21 22.05.18 тихо ()   н/о    н/о 
-0.6 -1 97 -1  990.7  -0.6  686  277           
00 23.05.18 230 (ЮЗ) 20000 м    10/0 средняя 
[Ac As]
+6.8 -0.6 59 +5  987.7  -0.8  685  269  -1.5        влажная 
03 23.05.18 250 (З) 4{10}  н/о    н/о 
+8.9 +0.9 57 +8  987.8  0.6  686  267           
06 23.05.18 190 (Ю) 1{14}  н/о    н/о 
+5.7 +3.3 85 +7  990.5  1.7  687  271           
09 23.05.18 250 (З) н/о    н/о 
+6.8 +3 77 +8  992.7  2.3  689  270           
12 23.05.18 150 (ЮВ) 20000 м  {ливн. осадки}  10/3 600 м кучево-дожд., средняя, верхняя 
[Cb cap|Ac trans|Ci ing]
+7.4 +4 79 +8  993.4  0.8  689  270    +10     
15 23.05.18 220 (ЮЗ) н/о    10/0 кучево-дожд., средняя 
[Cb cap|Ac trans]
+4.5 +3.7 95 +4  996.5  2.1  691  273           
18 23.05.18 220 (ЮЗ) н/о    8/4 600 м кучево-дожд., верхняя 
[Cb cap|Ci ing]
+3.4 +2.6 94 +4  998.6  1.6  692  275           
21 23.05.18 тихо ()   20000 м    10/0 средняя 
[Ac As]
+2.1 +1.8 98 +2  1001.7  2.5  694  277           
00 24.05.18 070 (В) 20000 м    ясно средняя 
[Ac As]
+3.2 +2.9 98 +3  1004.5  2.9  696  277  +1.8        влажная 
03 24.05.18 080 (В) 20000 м    8/1 1000 м верхняя 
[Cu hum|Ci fib]
+11 +3.4 59 +11  1003.7  2.9  697  269           
06 24.05.18 080 (В) 20000 м    4/3 1000 м верхняя 
[Cu med, cong|Ci fib]
+15.9 +1.7 38 +16  1002.4  697  265           
09 24.05.18 060 (СВ) 20000 м    10/3 1000 м средняя, верхняя 
[Cu hum|Ac lent|Ci fib]
+17 -0.3 31 +17  1002.9  0.7  698  265           
15 24.05.18 150 (ЮВ) н/о    н/о 
+3.6 +1.7 87 +4  1011.3  2.6  701  278           
18 24.05.18 тихо ()   н/о    н/о 
-0.3 -0.8 96 -0  1014.3  1.7  702  283           
21 24.05.18 тихо ()   20000 м    3/0 верхняя 
[Ci fib]
-1.7 -2 98 -2  1015.9  1.1  703  285           
00 25.05.18 тихо ()   20000 м    1/0 верхняя 
[Ci fib]
+7.9 +2.2 67 +8  1013.8  0.7  704  275  -2.2        влажная 
03 25.05.18 360 (С) 20000 м    3/1 1000 м верхняя 
[Cu hum|Ci fib]
+18.1 -2.2 25 +19  1009.8  -1.2  703  266           
06 25.05.18 090 (В) 20000 м    1/1 1000 м 
[Cu hum]
+21.3 -2.7 20 +21  1006.8  -2  701  262           
Время (UTC), дата Ветер
(°,м/с) 
Видим.   Явления Облачность Т
(°С)
Тd
(°С)
f(%) Тe
(°С)
Pmin
(гПа)
dP
(гПа)
Po
(мм)
O2
(г/м3)
Тmin Tmax R s Состояние
почвы

Для получения пояснительной информации подведите курсор к названию столбца.

ПОГОДА в Усугли - архив

Всё, что Вы хотите узнать о погоде в Усугли - удобно и подробно!

Выберите нужную дату (начиная с 1 января 2015* года) и нажмите кнопку "Найти".
Будут отображены архивные сводки погоды по пункту Усугли, начиная с указанной даты.


Отображать данные в формате CSV (для использования в таблицах Excel)


Внимание! Наш архив погоды предназначен исключительно для личного некоммерческого использования в познавательных целях. Если Вам необходимы официальные справки о состоянии погоды (для производственных, юридических, коммерческих и т.п. целей), обращайтесь в органы Росгидромета.

*Примечание: данная дата относится к архиву по метеостанциям СССР (Россия, СНГ, Балтия).
Архив по метеостанциям Зарубежной Европы и Азии (кроме Китая) хранится 10 дней, по другим регионам земного шара (Китай, Африка, Америка, Австралия, Океания) - 1 день.

Усугли - район местоположения метеостанции


Название, широта, долгота, высота метеостанции:
Усугли 52.6°ш. 115.2°д. 646 м над ур. моря [Российская Федерация]

Дополнительная информация

В oтличие oт бoльшинства пoгoдных сайтoв мы публикуем пoдрoбную метеoинфoрмацию в детальнoм прoфессиoнальнoм фoрмате.

Характеристики температуры и влажнoсти вoздуха измеряются на высoте 2 м в тени вдали oт зданий и деревьев.
Скoрoсть ветра измеряется на высoте 10 м (на урoвне рoста челoвека скoрoсть ветра ниже в 1.5-2 раза). Если метеoстанция нахoдится в гoрoде или в лесу, тo скoрoсть ветра занижена на 2-4 м/с пo сравнению с oткрытым местoм. Скoрoсть ветра над акватoриями крупных рек и oзёр, а также на вершинах хoлмoв на 2-5 м/с выше, чем в oбычных услoвиях.
Атмoсфернoе давление в разных тoчках местнoсти мoжет значительнo oтличаться oт давления на метеoстанции, в зависимoсти oт услoвий рельефа (при пoдъёме на 10 м давление пoнижается примернo на 1 мм рт.ст.).